www.pogodaiklimat.ru

Погода и климат >> Архив погоды >> Индонезия >> Джакарта


АРХИВ ПОГОДЫ в Джакарте

Время (UTC), дата Ветер
(напр.,м/с)
 
Видим.   Явления Облачность Т
(С)
Тd
(С)
f
(%)
Тe
(С)
Тes
(С)
Комфортность P
(гПа)
Po
(гПа)
Тmin
(С)
Tmax
(С)
R
(мм)
R24
(мм)
S
(см)
09 15.08 СВ 2 7000 м 9/4 600 м
[Sc As op Ci fib]
+31.0 +23.6 65 +42 +44 опасность
перегрева
1010.5 1010.0
12 15.08 В 2 6000 м 8/3 600 м
[Sc As op Ci fib]
+29.2 +23.4 71 +40 +40 очень
душно
1011.8 1011.3 +32.0
15 15.08 штиль 0 6000 м 8/4 600 м
[Sc As op Ci fib]
+28.0 +23.9 78 +39 +39 очень
душно
1013.4 1012.9
18 15.08 штиль 0 5000 м 8/3 600 м
[Sc As op Ci fib]
+27.2 +23.9 82 +37 +37 очень
душно
1012.2 1011.7
21 15.08 штиль 0 5000 м 8/3 600 м
[Sc As op Ci fib]
+26.8 +24.1 85 +37 +37 очень
душно
1011.6 1011.1
00 16.08 ЮВ 2 6000 м мгла 8/3 600 м
[Sc Ac As Ci fib]
+26.6 +23.3 82 +36 +37 очень
душно
1013.3 1012.8 +26.6
03 16.08 ЮЗ 3 8000 м 6/3 600 м
[Sc As op Ci fib]
+30.8 +21.9 59 +39 +47 очень
душно
1013.8 1013.3
06 16.08 З 3 8000 м 6/3 600 м
[Sc As op Ci fib]
+32.0 +21.4 54 +40 +48 очень
душно
1012.4 1011.9
09 16.08 ЮЗ 3 8000 м 6/3 600 м
[Sc As op Ci fib]
+30.0 +22.2 63 +39 +41 очень
душно
1011.0 1010.5
12 16.08 штиль 0 6000 м 6/3 600 м
[Sc As op Ci fib]
+28.0 +22.4 72 +37 +37 очень
душно
1010.0 1009.5 +32.0
15 16.08 штиль 0 6000 м 8/4 600 м
[Sc As op Ci fib]
+27.8 +24.0 80 +39 +39 очень
душно
1013.6 1013.1
18 16.08 штиль 0 6000 м 6/4 600 м
[Sc As op Ci fib]
+27.6 +24.0 81 +38 +38 очень
душно
1013.0 1012.5
21 16.08 штиль 0 6000 м 8/4 600 м
[Sc As op Ci fib]
+27.2 +24.2 84 +38 +38 очень
душно
1012.3 1011.8
00 17.08 штиль 0 6000 м мгла 9/4 600 м
[Sc As op Ci fib]
+27.2 +23.0 78 +36 +37 очень
душно
1013.5 1013.0 +26.6
03 17.08 Ю 2 7000 м 9/4 600 м
[Sc As op Ci fib]
+30.2 +22.9 65 +40 +45 очень
душно
1014.2 1013.7
06 17.08 С 3 7000 м 9/4 600 м
[Sc As op Ci fib]
+31.8 +22.6 58 +41 +47 опасность
перегрева
1011.5 1011.0
09 17.08 СЗ 3 7000 м 5/1 700 м
[Sc As op Ci fib]
+30.4 +22.0 61 +39 +42 очень
душно
1010.3 1009.8
12 17.08 В 2 6000 м 8/3 600 м
[Sc As op Ci fib]
+28.8 +23.2 72 +39 +39 очень
душно
1011.8 1011.3 +32.4
15 17.08 Ю 2 6000 м 6/3 600 м
[Sc As op Ci fib]
+28.0 +23.6 77 +38 +38 очень
душно
1013.2 1012.7
18 17.08 штиль 0 6000 м 5/1 700 м
[Sc As trans Ci fib]
+27.0 +22.8 78 +36 +36 очень
душно
1012.4 1011.9
21 17.08 ЮВ 3 6000 м 4/1 700 м
[Sc As trans Ci fib]
+25.8 +20.6 73 +32 +32 очень
душно
1011.6 1011.1
00 18.08 штиль 0 6000 м мгла 4/1 700 м
[Sc As trans Ci fib]
+25.4 +20.5 74 +31 +33 очень
душно
1013.3 1012.8 +25.0
03 18.08 В 3 7000 м 6/3 700 м
[Sc As trans Ci fib]
+30.8 +19.6 51 +37 +44 очень
душно
1013.6 1013.1
06 18.08 СВ 3 7000 м 6/3 600 м
[Sc As trans Ci fib]
+32.8 +21.3 51 +41 +49 опасность
перегрева
1011.3 1010.8
09 18.08 СВ 2 7000 м 6/3 600 м
[Sc As trans Ci fib]
+30.8 +21.9 59 +39 +42 очень
душно
1010.3 1009.8
12 18.08 штиль 0 6000 м 6/1 600 м
[Sc As trans Ci fib]
+28.4 +21.0 64 +36 +36 очень
душно
1012.3 1011.8 +33.4
15 18.08 штиль 0 6000 м 6/1 600 м
[Sc As trans Ci fib]
+27.2 +22.5 76 +36 +36 очень
душно
1014.1 1013.6
18 18.08 штиль 0 6000 м 8/3 600 м
[Sc As op Ci fib]
+26.6 +22.4 78 +35 +35 очень
душно
1013.7 1013.2
21 18.08 штиль 0 5000 м 8/3 600 м
[Sc As op Ci fib]
+25.2 +21.2 79 +32 +32 очень
душно
1012.8 1012.3
00 19.08 штиль 0 6000 м 8/3 600 м
[Sc As trans Ci fib]
+25.2 +20.0 73 +31 +32 очень
душно
1013.7 1013.2 +24.6
03 19.08 штиль 0 7000 м 4/1 600 м
[Sc As trans Ci fib]
+30.2 +21.2 59 +38 +54 опасность
солнечного
удара
1013.6 1013.1
06 19.08 СЗ 4 7000 м 4/1 600 м
[Sc As trans Ci fib]
+31.2 +22.6 60 +41 +50 опасность
перегрева
1011.6 1011.1
09 19.08 СЗ 5 7000 м 5/1 600 м
[Sc As trans Ci fib]
+29.2 +22.8 68 +39 +40 очень
душно
1010.2 1009.7
12 19.08 СЗ 3 6000 м 6/1 600 м
[Sc As op Ci fib]
+28.2 +23.2 74 +38 +38 очень
душно
1012.0 1011.5 +31.6
15 19.08 штиль 0 6000 м 6/1 600 м
[Sc As op Ci fib]
+27.6 +22.9 76 +37 +37 очень
душно
1013.4 1012.9
18 19.08 штиль 0 6000 м 6/1 600 м
[Sc As op Ci fib]
+26.4 +22.5 79 +35 +35 очень
душно
1012.0 1011.5
21 19.08 штиль 0 6000 м 5/1 600 м
[Sc As op Ci fib]
+25.8 +20.3 72 +32 +32 очень
душно
1011.5 1011.0
00 20.08 штиль 0 6000 м мгла 5/1 600 м
[Sc As trans Ci fib]
+25.6 +20.4 73 +32 +33 очень
душно
1012.5 1012.0 +25.0
03 20.08 Ю 3 8000 м 5/1 600 м
[Sc As op Ci fib]
+30.6 +22.3 61 +40 +49 очень
душно
1011.6 1011.1
06 20.08 З 3 8000 м 5/1 600 м
[Sc As op Ci fib]
+32.0 +19.0 46 +37 +49 очень
душно
1010.6 1010.6
09 20.08 Ю 3 8000 м 6/3 600 м
[Sc As op Ci fib]
+31.4 +20.0 51 +38 +40 очень
душно
1009.0 1008.5
12 20.08 штиль 0 6000 м 6/3 600 м
[Sc As op Ci fib]
+29.2 +21.0 61 +36 +36 очень
душно
1009.8 1009.3 +32.6
15 20.08 штиль 0 6000 м 6/3 600 м
[Sc As op Ci fib]
+28.0 +21.2 67 +35 +35 очень
душно
1011.0 1010.5
18 20.08 штиль 0 6000 м 6/3 600 м
[Sc As op Ci fib]
+26.2 +21.7 76 +34 +34 очень
душно
1009.8 1009.3
21 20.08 штиль 0 6000 м 6/3 600 м
[Sc As op Ci fib]
+21.6 +21.7 100 +28 +28 очень
душно
1009.8 1009.3
00 21.08 штиль 0 7000 м мгла 6/3 600 м
[Sc As op Ci fib]
+27.2 +21.3 70 +34 +36 очень
душно
1010.6 1010.1 +25.6
03 21.08 В 5 7000 м 6/1 700 м
[Sc As op Ci fib]
+31.6 +21.6 55 +40 +46 очень
душно
1012.2 1011.7
06 21.08 С 2 7000 м 5/1 750 м
[Sc As trans Ci fib]
+33.2 +20.0 46 +39 +52 опасность
солнечного
удара
1009.9 1009.4
09 21.08 СВ 6 7000 м 5/1 750 м
[Sc As trans Ci fib]
+31.4 +21.0 54 +39 +40 очень
душно
1008.9 1008.4
12 21.08 В 2 6000 м 6/3 600 м
[Sc As op Ci fib]
+28.8 +22.7 70 +38 +38 очень
душно
1011.7 1011.2 +33.6
15 21.08 штиль 0 6000 м 6/3 600 м
[Sc As op Ci fib]
+27.8 +23.4 77 +38 +38 очень
душно
1013.1 1012.6
18 21.08 ЮВ 2 6000 м 4/1 700 м
[Sc As trans Ci fib]
+27.2 +22.7 76 +36 +36 очень
душно
1012.8 1012.3
21 21.08 штиль 0 6000 м 8/3 600 м
[Sc As op Ci fib]
+26.6 +22.7 79 +35 +35 очень
душно
1012.4 1011.9
00 22.08 штиль 0 6000 м мгла 6/3 600 м
[Sc Ac As Ci fib]
+27.0 +22.8 78 +36 +37 очень
душно
1014.2 1013.7 +26.4
03 22.08 СВ 3 7000 м 8/3 600 м
[Sc Ac As Ci fib]
+30.2 +22.4 63 +39 +46 очень
душно
1013.8 1013.3
06 22.08 СЗ 4 7000 м 6/3 600 м
[Sc As op Ci fib]
+31.4 +23.2 62 +42 +49 опасность
перегрева
1011.5 1011.0

 

Местоположение метеостанции Джакарта (Индонезия): широта -6.18 долгота 106.83 высота над уровнем моря 8 м.

В архиве по умолчанию представлена погода в Джакарте за последнюю неделю. Архивные данные за месяц целиком и за предыдущие месяцы, начиная с января 2011 года, Вы можете получить, выбрав интересующий диапазон дат из раскрывающегося списка и нажав кнопку "Ввод!".


*Определитесь, кто Вы:
робот инопланетянин человек

Внимание! Время в таблицах - всемирное. Для получения местного времени необходимо прибавить поправку, которая равна 7 ч.

Смотрите также архив погоды в соседних городах и на ближайших метеорологических станциях:

Погода в Джакарта порту (Индонезия) (10 км)
Погода в Чуруге (Индонезия) (21 км)
Погода в Аэропорту Сукарно-Хатта (Индонезия) (21 км)
Погода в Цитеко (Индонезия) (59 км)
Погода в Серанге (Индонезия) (78 км)
Погода в Бандунге (Индонезия) (115 км)
Погода в Сиребоне (Индонезия) (170 км)
Погода в Танджунгкаранге (Индонезия) (219 км)
Погода в Тегале (Индонезия) (267 км)
Погода в Чилачапе (Индонезия) (296 км)

Пояснения к столбцам:

Ветер - указаны скорость ветра в м/с - средняя за 10 мин, порывы в срок и между сроками (в фигурных скобках) и направление, откуда дует ветер: С - северный, СВ - северо-восточный, В - восточный, ЮВ - юго-восточный, Ю - южный, ЮЗ - юго-западный, З - западный, СЗ - северо-западный.
Видимость - горизонтальная дальность видимости в метрах или километрах. При видимости от 1 до 10 км при отсутствии осадков обычно наблюдается дымка, при ухудшении видимости до 1 км и менее - туман. В сухую погоду видимость может ухудшаться дымом, пылью или мглою.
Явления - указаны атмосферные явления, наблюдавшиеся в срок или в последний час перед сроком; фигурными скобками обозначены явления, наблюдавшиеся между сроками (за 1-3 часа до срока); квадратными скобками обозначены град или гололедные отложения с указанием их диаметра в мм.
Облачность - указаны через наклонную черту общая и нижняя облачность в баллах и высота нижней границы облаков в метрах; квадратными скобками обозначены формы облаков: Ci - перистые, Cs - перисто-слоистые, Cc - перисто-кучевые, Ac - высококучевые, As - высокослоистые, Sc - слоисто-кучевые, Ns - слоисто-дождевые, Cu - кучевые, Cb - кучево-дождевые. Подробнее классификацию облаков см. в Атласе облаков (PDF).
T - Температура воздуха - температура, измеренная на высоте 2 м над землей.
Td - Температура точки росы - температура, при понижении до которой содержащийся в воздухе водяной пар достигнет насыщения.
f - Относительная влажность воздуха - влажноcть воздуха, измеренная на высоте 2 м над землей.
Te - Эффективная температура - температура, которую ощущает одетый по сезону человек в тени. Характеристика душности погоды. При расчете учитывается влияние влажности воздуха и скорости ветра на теплоощущения человека.
Tes - Эффективная температура на солнце - температура, которую ощущает человек, с поправкой на солнечный нагрев. Характеристика знойности погоды. Зависит от высоты солнца над горизонтом, облачности и скорости ветра. Ночью, в пасмурную погоду, а также при ветре 12 м/с и более поправка равна нулю.
P - Атмосферное давление - приведенное к уровню моря атмосферное давление.
Po - Атмосферное давление - измеренное на уровне метеостанции атмосферное давление.
Tmin - Минимальная температура - минимум температуры воздуха на высоте 2 м над землей.
Tmax - Максимальная температура - максимум температуры воздуха на высоте 2 м над землей.
R - Количество осадков - Количество выпавших осадков за период времени, мм. При наведении курсора мыши на число - период времени, за который выпало указанное количество осадков.
R24 - Количество осадков - Количество выпавших осадков за 24 часа, мм.
S - Снежный покров - Высота снежного покрова, см. При наведении курсора мыши на число - состояние снежного покрова и степень покрытия местности в баллах.